Hauptseite
METAR-TAF:

METAR-TAF

Flughäfen :

Bohrplattform

Awg-1, Niederlande

Breite: 53-29-30N, Länge: 5-56-30E, Höhe: 33 m

Beobachtung

Neuester Wetterbericht von vor 52 Minuten, um 19:25 UTC
Wind 4 kt aus Südwest, variierte zwischen Süd und West/Südwest
Temperatur 15°C
Luftfeuchtigkeit 72%
Luftdruck 1007 hPa
Sichtweite 10 km oder mehr

METAR: EHMA 301925Z AUTO 22004KT 180V250 9999 NCD 15/10 Q1007

Zeit: 22:17 (20:17 UTC)


TAF: fehlend

Wetterbeobachtungen und Prognosen von mehr als 4000 Flughäfen (METAR und TAF Bericht).

Die verfügbaren Stationen werden durch gelbe und rote Markierungen auf der Karte dargestellt.

Führen Sie die Maus auf sie, um den Namen der Station zu sehen.

Darauf klicken, um die Beobachtung von Wetterbeobachtungen und Prognosen zu sehen.

Um die Karte zu ändern : klicken Sie auf den grünen Tasten mit einem schwarzen Kreuz Zum Vergrößern, auf den grünen Button mit einem Gedankenstrich zu verkleinern, oder auf die grünen Pfeile für benachbarte Karten.


METAR-TAF: